Location: Huesca
(42.1318°N, 0.4078°W)
Time: 08:19:04
(UTC+02:00)

CUTE 1.7 + AOD 2 - Pass Details

Date: 03 May 2024
Orbit: 569 x 587 km, 97.8° (Epoch: 20 May)

Event Time Altitude Azimuth Distance (km) Brightness Sun altitude
Rises 06:06:28 0° 5° (N) 2,781 ? -8.8°
Reaches altitude 10° 06:08:42 10° 358° (N) 1,878 ? -8.4°
Maximum altitude 06:12:31 40° 288° (WNW) 844 ? -7.8°
Drops below altitude 10° 06:16:18 10° 219° (SW) 1,867 ? -7.2°
Enters shadow 06:17:05 - 215° (SW) 2,178 ? -7.1°
